Terug naar catalogus

THORAD DELTA 1 DEB

ActiefSSO
NORAD 8394·DEBRIS·🇺🇸 United States

Gelanceerd Nov 15, 1974 vanaf Vandenberg Space Force Base

Loading…

Volgende Passages (komende 24 uur)

TLE

VersSource: Space-Track

Epoch: Sep 14, 2026, 00:12 UTC

1 08394U 74089BW  26257.00883116 -.00000008  00000-0  31474-3 0  9992
2 08394 102.0748 270.2831 0174312 145.6550 242.9305 12.20481886950307

Volg THORAD DELTA 1 DEB in realtime met AllMySat

Download on the App Store